| time (UTC) | temp F | wind direction | speed MPH | gust MPH | rain 1hr in | rain 24hr in | rain mn in | humidity % | barometer mb |
| 20260507051049 | 62 | 119 | 0.0 | 2.0 | 0.01 | 0.11 | 0.01 | 93 | 1013.3 |
| 20260507050547 | 62 | 155 | 0.0 | 2.0 | 0.00 | 0.10 | 0.00 | 93 | 1013.2 |
| 20260507050055 | 62 | 128 | 0.0 | 3.0 | 0.00 | 0.10 | 0.00 | 93 | 1012.8 |
| 20260507045548 | 62 | 0 | 0.0 | 3.0 | 0.00 | 0.10 | 0.00 | 93 | 1012.8 |
| 20260507045047 | 62 | 76 | 0.0 | 3.0 | 0.01 | 0.10 | 0.00 | 93 | 1012.8 |
| 20260507044558 | 62 | 0 | 0.0 | 0.0 | 0.01 | 0.10 | 0.00 | 93 | 1012.7 |
| 20260507044047 | 62 | 0 | 0.0 | 0.0 | 0.01 | 0.10 | 0.00 | 93 | 1012.6 |
| 20260507043544 | 62 | 0 | 0.0 | 0.0 | 0.01 | 0.10 | 0.00 | 92 | 1012.7 |
| 20260507043053 | 63 | 0 | 0.0 | 0.0 | 0.02 | 0.10 | 0.00 | 92 | 1012.7 |
| 20260507042548 | 63 | 0 | 0.0 | 0.0 | 0.02 | 0.10 | 0.00 | 92 | 1012.8 |
| 20260507042047 | 63 | 0 | 0.0 | 0.0 | 0.02 | 0.10 | 0.00 | 92 | 1012.7 |
| 20260507041549 | 63 | 0 | 0.0 | 0.0 | 0.03 | 0.10 | 0.00 | 92 | 1012.3 |
| 20260507041051 | 63 | 0 | 0.0 | 1.0 | 0.03 | 0.10 | 0.00 | 92 | 1012.2 |
| 20260507040548 | 63 | 0 | 0.0 | 3.0 | 0.04 | 0.10 | 0.00 | 92 | 1012.0 |
| 20260507040051 | 63 | 0 | 0.0 | 4.0 | 0.06 | 0.10 | 0.00 | 91 | 1011.5 |
| 20260507035548 | 63 | 67 | 1.0 | 4.0 | 0.07 | 0.10 | 0.10 | 91 | 1012.0 |
| 20260507035047 | 63 | 0 | 0.0 | 3.0 | 0.06 | 0.09 | 0.09 | 91 | 1012.4 |
| 20260507034555 | 63 | 89 | 0.0 | 6.0 | 0.06 | 0.09 | 0.09 | 91 | 1012.4 |
| 20260507034048 | 64 | 0 | 1.0 | 6.0 | 0.06 | 0.09 | 0.09 | 91 | 1012.0 |
| 20260507033547 | 64 | 89 | 1.0 | 6.0 | 0.06 | 0.09 | 0.09 | 91 | 1012.6 |
| 20260507033057 | 64 | 277 | 1.0 | 10.0 | 0.05 | 0.08 | 0.08 | 90 | 1011.8 |
| 20260507032547 | 64 | 84 | 2.0 | 10.0 | 0.06 | 0.08 | 0.08 | 90 | 1013.4 |
| 20260507032048 | 64 | 65 | 4.0 | 10.0 | 0.06 | 0.08 | 0.08 | 89 | 1013.8 |
| 20260507031556 | 65 | 67 | 4.0 | 10.0 | 0.05 | 0.07 | 0.07 | 89 | 1014.0 |
| 20260507031048 | 65 | 77 | 2.0 | 11.0 | 0.05 | 0.07 | 0.07 | 89 | 1013.8 |
| 20260507030548 | 65 | 32 | 3.0 | 11.0 | 0.04 | 0.06 | 0.06 | 89 | 1013.7 |
| 20260507030053 | 65 | 70 | 4.0 | 11.0 | 0.02 | 0.04 | 0.04 | 88 | 1013.5 |
| 20260507025548 | 65 | 71 | 3.0 | 9.0 | 0.01 | 0.03 | 0.03 | 89 | 1013.6 |
| 20260507025051 | 66 | 88 | 2.0 | 9.0 | 0.01 | 0.03 | 0.03 | 89 | 1013.5 |
| 20260507024601 | 66 | 74 | 3.0 | 9.0 | 0.01 | 0.03 | 0.03 | 89 | 1013.3 |
| 20260507024044 | 66 | 71 | 2.0 | 7.0 | 0.02 | 0.03 | 0.03 | 89 | 1013.2 |
| 20260507023544 | 66 | 42 | 2.0 | 7.0 | 0.02 | 0.03 | 0.03 | 89 | 1013.1 |
| 20260507023051 | 66 | 298 | 2.0 | 11.0 | 0.02 | 0.03 | 0.03 | 89 | 1013.1 |
| 20260507022547 | 66 | 77 | 4.0 | 11.0 | 0.01 | 0.02 | 0.02 | 90 | 1013.2 |
| 20260507022048 | 66 | 128 | 2.0 | 7.0 | 0.01 | 0.02 | 0.02 | 90 | 1013.1 |
| 20260507021550 | 66 | 76 | 1.0 | 7.0 | 0.02 | 0.02 | 0.02 | 90 | 1013.0 |
| 20260507021047 | 66 | 330 | 1.0 | 4.0 | 0.02 | 0.02 | 0.02 | 90 | 1012.9 |
| 20260507020548 | 66 | 79 | 1.0 | 4.0 | 0.02 | 0.02 | 0.02 | 90 | 1012.9 |
| 20260507020049 | 66 | 98 | 0.0 | 4.0 | 0.02 | 0.02 | 0.02 | 90 | 1012.8 |
| 20260507015545 | 66 | 0 | 1.0 | 4.0 | 0.02 | 0.02 | 0.02 | 90 | 1012.6 |
| 20260507015047 | 66 | 0 | 1.0 | 3.0 | 0.02 | 0.02 | 0.02 | 90 | 1012.5 |
| 20260507014602 | 66 | 0 | 0.0 | 0.0 | 0.01 | 0.01 | 0.01 | 90 | 1012.0 |
| 20260507014048 | 66 | 0 | 0.0 | 2.0 | 0.01 | 0.01 | 0.01 | 89 | 1011.8 |
| 20260507013551 | 66 | 0 | 0.0 | 2.0 | 0.01 | 0.01 | 0.01 | 89 | 1011.7 |
| 20260507013053 | 66 | 65 | 0.0 | 2.0 | 0.01 | 0.01 | 0.01 | 89 | 1011.8 |
| 20260507012550 | 66 | 68 | 0.0 | 2.0 | 0.01 | 0.01 | 0.01 | 89 | 1011.9 |
| 20260507012048 | 66 | 0 | 0.0 | 1.0 | 0.01 | 0.01 | 0.01 | 89 | 1012.0 |
| 20260507011551 | 66 | 0 | 0.0 | 1.0 | 0.00 | 0.00 | 0.00 | 88 | 1012.1 |
| 20260507011046 | 66 | 0 | 0.0 | 1.0 | 0.00 | 0.00 | 0.00 | 88 | 1012.3 |
| 20260507010544 | 66 | 0 | 0.0 | 1.0 | 0.00 | 0.00 | 0.00 | 88 | 1012.3 |
| 20260507005547 | 66 | 0 | 0.0 | 1.0 | 0.00 | 0.00 | 0.00 | 87 | 1012.6 |
| 20260507005048 | 66 | 0 | 0.0 | 3.0 | 0.00 | 0.00 | 0.00 | 87 | 1012.5 |
| 20260507004605 | 67 | 0 | 1.0 | 3.0 | 0.00 | 0.00 | 0.00 | 87 | 1012.6 |
| 20260507004048 | 67 | 0 | 0.0 | 1.0 | 0.00 | 0.00 | 0.00 | 86 | 1012.0 |
| 20260507003544 | 67 | 98 | 0.0 | 1.0 | 0.00 | 0.00 | 0.00 | 85 | 1012.0 |
| 20260507003055 | 68 | 0 | 0.0 | 0.0 | 0.00 | 0.00 | 0.00 | 85 | 1012.2 |
| 20260507002547 | 68 | 0 | 0.0 | 0.0 | 0.00 | 0.00 | 0.00 | 84 | 1012.3 |
| 20260507002047 | 68 | 0 | 0.0 | 2.0 | 0.00 | 0.00 | 0.00 | 83 | 1012.0 |
| 20260507001555 | 69 | 0 | 0.0 | 3.0 | 0.00 | 0.00 | 0.00 | 82 | 1012.2 |
| 20260507001045 | 69 | 94 | 1.0 | 3.0 | 0.00 | 0.00 | 0.00 | 81 | 1012.3 |
| 20260507000546 | 69 | 94 | 1.0 | 3.0 | 0.00 | 0.00 | 0.00 | 80 | 1012.0 |
| 20260507000054 | 69 | 0 | 0.0 | 3.0 | 0.00 | 0.00 | 0.00 | 80 | 1011.7 |
| 20260506235548 | 69 | 153 | 0.0 | 3.0 | 0.00 | 0.00 | 0.00 | 80 | 1012.0 |
| 20260506235047 | 70 | 110 | 0.0 | 3.0 | 0.00 | 0.00 | 0.00 | 79 | 1012.0 |
| 20260506234554 | 70 | 0 | 0.0 | 4.0 | 0.00 | 0.00 | 0.00 | 79 | 1012.1 |
| 20260506234045 | 70 | 107 | 0.0 | 4.0 | 0.00 | 0.00 | 0.00 | 79 | 1012.1 |
| 20260506233547 | 70 | 83 | 1.0 | 4.0 | 0.00 | 0.00 | 0.00 | 78 | 1012.1 |
| 20260506233058 | 70 | 88 | 1.0 | 4.0 | 0.00 | 0.00 | 0.00 | 78 | 1011.9 |
| 20260506232545 | 70 | 84 | 0.0 | 3.0 | 0.00 | 0.00 | 0.00 | 78 | 1012.0 |
| 20260506232048 | 70 | 0 | 1.0 | 5.0 | 0.00 | 0.00 | 0.00 | 78 | 1011.9 |
| 20260506231558 | 70 | 0 | 0.0 | 6.0 | 0.00 | 0.00 | 0.00 | 78 | 1012.0 |
| 20260506231052 | 70 | 49 | 1.0 | 9.0 | 0.00 | 0.00 | 0.00 | 78 | 1012.0 |
| 20260506230543 | 70 | 0 | 0.0 | 9.0 | 0.00 | 0.00 | 0.00 | 77 | 1012.1 |
| 20260506230107 | 70 | 59 | 3.0 | 7.0 | 0.00 | 0.00 | 0.00 | 77 | 1012.3 |
| 20260506225548 | 71 | 97 | 0.0 | 7.0 | 0.00 | 0.00 | 0.00 | 77 | 1012.4 |
| 20260506225047 | 71 | 320 | 3.0 | 8.0 | 0.00 | 0.00 | 0.00 | 77 | 1012.5 |
| 20260506224600 | 71 | 78 | 2.0 | 11.0 | 0.00 | 0.00 | 0.00 | 77 | 1012.6 |
| 20260506224044 | 71 | 103 | 3.0 | 11.0 | 0.00 | 0.00 | 0.00 | 76 | 1012.5 |
| 20260506223552 | 71 | 115 | 2.0 | 7.0 | 0.00 | 0.00 | 0.00 | 77 | 1012.6 |
| 20260506223105 | 71 | 122 | 0.0 | 7.0 | 0.00 | 0.00 | 0.00 | 76 | 1012.5 |
| 20260506222548 | 71 | 61 | 2.0 | 11.0 | 0.00 | 0.00 | 0.00 | 76 | 1012.6 |
| 20260506222047 | 71 | 68 | 4.0 | 11.0 | 0.00 | 0.00 | 0.00 | 76 | 1012.5 |
| 20260506221557 | 71 | 37 | 4.0 | 10.0 | 0.00 | 0.00 | 0.00 | 76 | 1012.6 |
| 20260506221045 | 71 | 68 | 3.0 | 10.0 | 0.00 | 0.00 | 0.00 | 76 | 1012.8 |
| 20260506220546 | 71 | 84 | 2.0 | 10.0 | 0.00 | 0.00 | 0.00 | 76 | 1012.6 |
| 20260506220052 | 71 | 95 | 4.0 | 9.0 | 0.00 | 0.00 | 0.00 | 75 | 1012.6 |
| 20260506215551 | 71 | 63 | 4.0 | 12.0 | 0.00 | 0.00 | 0.00 | 75 | 1012.5 |
| 20260506215048 | 71 | 69 | 3.0 | 12.0 | 0.00 | 0.00 | 0.00 | 75 | 1012.4 |
| 20260506214605 | 71 | 144 | 4.0 | 12.0 | 0.00 | 0.00 | 0.00 | 75 | 1012.6 |
| 20260506214046 | 71 | 61 | 4.0 | 13.0 | 0.00 | 0.00 | 0.00 | 75 | 1012.3 |
| 20260506213547 | 71 | 70 | 5.0 | 13.0 | 0.00 | 0.00 | 0.00 | 75 | 1012.1 |
| 20260506213058 | 71 | 261 | 4.0 | 12.0 | 0.00 | 0.00 | 0.00 | 74 | 1012.2 |
| 20260506212546 | 71 | 338 | 3.0 | 12.0 | 0.00 | 0.00 | 0.00 | 74 | 1011.8 |
| 20260506212049 | 71 | 77 | 3.0 | 12.0 | 0.00 | 0.00 | 0.00 | 74 | 1011.6 |
| 20260506211606 | 72 | 43 | 2.0 | 12.0 | 0.00 | 0.00 | 0.00 | 74 | 1011.7 |
| 20260506211046 | 72 | 103 | 2.0 | 10.0 | 0.00 | 0.00 | 0.00 | 73 | 1011.8 |
| 20260506210545 | 72 | 71 | 3.0 | 11.0 | 0.00 | 0.00 | 0.00 | 75 | 1012.0 |
| 20260506210057 | 72 | 86 | 5.0 | 11.0 | 0.00 | 0.00 | 0.00 | 74 | 1012.1 |
| 20260506205547 | 72 | 96 | 3.0 | 10.0 | 0.00 | 0.00 | 0.00 | 74 | 1012.2 |
| 20260506205047 | 72 | 103 | 3.0 | 10.0 | 0.00 | 0.00 | 0.00 | 74 | 1012.3 |
| 20260506204552 | 72 | 77 | 3.0 | 14.0 | 0.00 | 0.00 | 0.00 | 74 | 1012.3 |
| 20260506204046 | 72 | 140 | 4.0 | 14.0 | 0.00 | 0.00 | 0.00 | 74 | 1012.3 |
| 20260506203548 | 72 | 66 | 4.0 | 11.0 | 0.00 | 0.00 | 0.00 | 74 | 1012.7 |
| 20260506203054 | 71 | 271 | 4.0 | 10.0 | 0.00 | 0.00 | 0.00 | 75 | 1012.5 |
| 20260506202547 | 71 | 69 | 4.0 | 10.0 | 0.00 | 0.00 | 0.00 | 75 | 1012.6 |
| 20260506202047 | 71 | 118 | 4.0 | 13.0 | 0.00 | 0.00 | 0.00 | 75 | 1012.4 |
| 20260506201553 | 71 | 41 | 5.0 | 13.0 | 0.00 | 0.00 | 0.00 | 76 | 1012.6 |
| 20260506201044 | 71 | 92 | 3.0 | 13.0 | 0.00 | 0.00 | 0.00 | 76 | 1012.7 |
| 20260506200550 | 70 | 93 | 5.0 | 10.0 | 0.00 | 0.00 | 0.00 | 76 | 1012.6 |
| 20260506195548 | 70 | 22 | 5.0 | 10.0 | 0.00 | 0.00 | 0.00 | 77 | 1012.4 |
| 20260506195051 | 70 | 63 | 4.0 | 9.0 | 0.00 | 0.00 | 0.00 | 76 | 1012.5 |
| 20260506194605 | 70 | 101 | 3.0 | 11.0 | 0.00 | 0.00 | 0.00 | 77 | 1012.6 |
| 20260506194044 | 70 | 21 | 4.0 | 12.0 | 0.00 | 0.00 | 0.00 | 77 | 1012.5 |
| 20260506193549 | 69 | 202 | 6.0 | 18.0 | 0.00 | 0.00 | 0.00 | 77 | 1012.5 |
| 20260506193056 | 69 | 88 | 6.0 | 18.0 | 0.00 | 0.00 | 0.00 | 77 | 1012.5 |
| 20260506192548 | 69 | 78 | 4.0 | 11.0 | 0.00 | 0.00 | 0.00 | 78 | 1012.5 |
| 20260506192049 | 69 | 217 | 3.0 | 11.0 | 0.00 | 0.00 | 0.00 | 78 | 1012.5 |
| 20260506191604 | 68 | 263 | 4.0 | 11.0 | 0.00 | 0.00 | 0.00 | 79 | 1012.4 |
| 20260506191045 | 68 | 215 | 3.0 | 13.0 | 0.00 | 0.00 | 0.00 | 79 | 1012.5 |
| 20260506190548 | 68 | 205 | 5.0 | 13.0 | 0.00 | 0.00 | 0.00 | 79 | 1012.9 |
| 20260506190055 | 68 | 119 | 4.0 | 13.0 | 0.00 | 0.00 | 0.00 | 78 | 1012.9 |
| 20260506185548 | 68 | 139 | 3.0 | 10.0 | 0.00 | 0.00 | 0.00 | 79 | 1013.2 |
| 20260506185047 | 68 | 81 | 5.0 | 11.0 | 0.00 | 0.00 | 0.00 | 78 | 1013.1 |
| 20260506184555 | 68 | 51 | 4.0 | 11.0 | 0.00 | 0.00 | 0.00 | 78 | 1013.1 |
| 20260506184048 | 68 | 35 | 4.0 | 11.0 | 0.00 | 0.00 | 0.00 | 78 | 1012.9 |
| 20260506183545 | 68 | 103 | 2.0 | 9.0 | 0.00 | 0.00 | 0.00 | 79 | 1012.6 |
| 20260506183053 | 67 | 331 | 2.0 | 8.0 | 0.00 | 0.00 | 0.00 | 79 | 1012.5 |
| 20260506182544 | 67 | 94 | 2.0 | 8.0 | 0.00 | 0.00 | 0.00 | 79 | 1012.4 |
| 20260506182048 | 67 | 186 | 2.0 | 8.0 | 0.00 | 0.00 | 0.00 | 80 | 1012.8 |
| 20260506181559 | 67 | 48 | 2.0 | 6.0 | 0.00 | 0.00 | 0.00 | 80 | 1013.1 |
| 20260506181045 | 66 | 33 | 1.0 | 8.0 | 0.00 | 0.00 | 0.00 | 82 | 1013.4 |
| 20260506180547 | 66 | 100 | 1.0 | 10.0 | 0.00 | 0.00 | 0.00 | 81 | 1013.8 |
| 20260506180115 | 66 | 82 | 2.0 | 14.0 | 0.00 | 0.00 | 0.00 | 80 | 1014.0 |
| 20260506175546 | 66 | 90 | 2.0 | 14.0 | 0.00 | 0.00 | 0.00 | 79 | 1014.0 |
| 20260506175046 | 67 | 140 | 5.0 | 14.0 | 0.00 | 0.00 | 0.00 | 78 | 1014.1 |
| 20260506174548 | 67 | 0 | 0.0 | 6.0 | 0.00 | 0.00 | 0.00 | 79 | 1014.3 |
| 20260506174045 | 67 | 84 | 1.0 | 6.0 | 0.00 | 0.00 | 0.00 | 79 | 1014.4 |
| 20260506173549 | 68 | 82 | 2.0 | 6.0 | 0.00 | 0.00 | 0.00 | 78 | 1014.5 |
| 20260506173119 | 68 | 94 | 1.0 | 8.0 | 0.00 | 0.00 | 0.00 | 76 | 1014.7 |
| 20260506172548 | 68 | 70 | 3.0 | 8.0 | 0.00 | 0.00 | 0.00 | 75 | 1014.7 |
| 20260506172047 | 69 | 78 | 2.0 | 6.0 | 0.00 | 0.00 | 0.00 | 75 | 1014.6 |
| 20260506171553 | 69 | 0 | 0.0 | 3.0 | 0.00 | 0.00 | 0.00 | 75 | 1014.4 |
| 20260506171048 | 69 | 83 | 1.0 | 3.0 | 0.00 | 0.00 | 0.00 | 75 | 1014.5 |
| 20260506170550 | 68 | 0 | 0.0 | 4.0 | 0.00 | 0.00 | 0.00 | 75 | 1014.5 |
| 20260506170050 | 68 | 115 | 0.0 | 4.0 | 0.00 | 0.00 | 0.00 | 76 | 1014.4 |
| 20260506165547 | 68 | 0 | 1.0 | 4.0 | 0.00 | 0.00 | 0.00 | 75 | 1014.3 |
| 20260506165048 | 68 | 0 | 1.0 | 3.0 | 0.00 | 0.00 | 0.00 | 75 | 1014.3 |
| 20260506164552 | 68 | 119 | 2.0 | 3.0 | 0.00 | 0.00 | 0.00 | 76 | 1014.3 |
| 20260506164048 | 68 | 103 | 1.0 | 5.0 | 0.00 | 0.00 | 0.00 | 75 | 1014.3 |
| 20260506163544 | 68 | 84 | 2.0 | 6.0 | 0.00 | 0.00 | 0.00 | 74 | 1014.4 |
| 20260506163059 | 68 | 0 | 2.0 | 6.0 | 0.00 | 0.00 | 0.00 | 74 | 1014.4 |
| 20260506162547 | 68 | 91 | 2.0 | 9.0 | 0.00 | 0.00 | 0.00 | 73 | 1014.5 |
| 20260506162047 | 68 | 107 | 3.0 | 9.0 | 0.00 | 0.00 | 0.00 | 73 | 1014.4 |
| 20260506161555 | 68 | 23 | 2.0 | 9.0 | 0.00 | 0.00 | 0.00 | 73 | 1014.4 |
| 20260506161047 | 68 | 84 | 2.0 | 6.0 | 0.00 | 0.00 | 0.00 | 74 | 1014.4 |
| 20260506160544 | 67 | 82 | 2.0 | 8.0 | 0.00 | 0.00 | 0.00 | 74 | 1014.5 |
| 20260506160053 | 67 | 90 | 3.0 | 8.0 | 0.00 | 0.00 | 0.00 | 74 | 1014.4 |
| 20260506155552 | 67 | 38 | 2.0 | 11.0 | 0.00 | 0.00 | 0.00 | 74 | 1014.4 |
| 20260506155047 | 67 | 103 | 3.0 | 11.0 | 0.00 | 0.00 | 0.00 | 74 | 1014.4 |
| 20260506154555 | 67 | 302 | 2.0 | 7.0 | 0.00 | 0.00 | 0.00 | 74 | 1014.1 |
| 20260506154047 | 67 | 126 | 1.0 | 7.0 | 0.00 | 0.00 | 0.00 | 74 | 1013.9 |
| 20260506153547 | 66 | 77 | 1.0 | 8.0 | 0.00 | 0.00 | 0.00 | 74 | 1013.9 |
| 20260506153056 | 66 | 69 | 1.0 | 8.0 | 0.00 | 0.00 | 0.00 | 74 | 1013.9 |
| 20260506152548 | 66 | 74 | 2.0 | 8.0 | 0.00 | 0.00 | 0.00 | 74 | 1013.9 |
| 20260506152048 | 66 | 43 | 1.0 | 6.0 | 0.00 | 0.00 | 0.00 | 74 | 1014.1 |
| 20260506151552 | 66 | 317 | 2.0 | 6.0 | 0.00 | 0.00 | 0.00 | 74 | 1014.1 |
| 20260506151044 | 66 | 90 | 2.0 | 9.0 | 0.00 | 0.00 | 0.00 | 74 | 1014.1 |
| 20260506150550 | 66 | 91 | 4.0 | 9.0 | 0.00 | 0.00 | 0.00 | 74 | 1014.0 |
| 20260506150057 | 66 | 112 | 3.0 | 9.0 | 0.00 | 0.00 | 0.00 | 74 | 1014.0 |
| 20260506145545 | 66 | 48 | 2.0 | 9.0 | 0.00 | 0.00 | 0.00 | 73 | 1013.9 |
| 20260506145044 | 65 | 98 | 3.0 | 7.0 | 0.00 | 0.00 | 0.00 | 74 | 1014.0 |
| 20260506144604 | 65 | 91 | 3.0 | 9.0 | 0.00 | 0.00 | 0.00 | 74 | 1014.1 |
| 20260506144044 | 65 | 96 | 2.0 | 11.0 | 0.00 | 0.00 | 0.00 | 74 | 1014.2 |
| 20260506143547 | 65 | 80 | 3.0 | 11.0 | 0.00 | 0.00 | 0.00 | 73 | 1014.1 |
| 20260506143050 | 65 | 101 | 2.0 | 11.0 | 0.00 | 0.00 | 0.00 | 73 | 1014.2 |
| 20260506142546 | 65 | 101 | 2.0 | 11.0 | 0.00 | 0.00 | 0.00 | 73 | 1014.1 |
| 20260506142048 | 65 | 57 | 3.0 | 11.0 | 0.00 | 0.00 | 0.00 | 73 | 1013.9 |
| 20260506141546 | 65 | 342 | 4.0 | 11.0 | 0.00 | 0.00 | 0.00 | 73 | 1014.0 |
| 20260506141048 | 65 | 76 | 3.0 | 9.0 | 0.00 | 0.00 | 0.00 | 73 | 1014.0 |
| 20260506140547 | 65 | 57 | 3.0 | 11.0 | 0.00 | 0.00 | 0.00 | 73 | 1014.0 |
| 20260506140051 | 65 | 44 | 3.0 | 12.0 | 0.00 | 0.00 | 0.00 | 73 | 1013.9 |
| 20260506135547 | 65 | 106 | 5.0 | 12.0 | 0.00 | 0.00 | 0.00 | 73 | 1013.8 |
| 20260506135047 | 65 | 86 | 3.0 | 10.0 | 0.00 | 0.00 | 0.00 | 73 | 1013.9 |
| 20260506134555 | 65 | 75 | 5.0 | 10.0 | 0.00 | 0.00 | 0.00 | 72 | 1013.8 |
| 20260506134046 | 65 | 48 | 2.0 | 9.0 | 0.00 | 0.00 | 0.00 | 73 | 1013.9 |
| 20260506133548 | 65 | 71 | 3.0 | 12.0 | 0.00 | 0.00 | 0.00 | 73 | 1013.9 |
| 20260506133057 | 65 | 0 | 2.0 | 12.0 | 0.00 | 0.00 | 0.00 | 74 | 1014.0 |
| 20260506132544 | 64 | 103 | 3.0 | 8.0 | 0.00 | 0.00 | 0.00 | 74 | 1014.0 |
| 20260506132048 | 64 | 46 | 2.0 | 6.0 | 0.00 | 0.00 | 0.00 | 74 | 1013.7 |
| 20260506131549 | 64 | 317 | 2.0 | 13.0 | 0.00 | 0.00 | 0.00 | 74 | 1013.7 |
| 20260506131047 | 64 | 108 | 2.0 | 13.0 | 0.00 | 0.00 | 0.00 | 75 | 1013.6 |
| 20260506130547 | 63 | 13 | 5.0 | 13.0 | 0.00 | 0.00 | 0.00 | 75 | 1013.7 |
| 20260506130051 | 63 | 65 | 3.0 | 11.0 | 0.00 | 0.00 | 0.00 | 75 | 1013.8 |
| 20260506125545 | 63 | 62 | 2.0 | 11.0 | 0.00 | 0.00 | 0.00 | 76 | 1014.0 |
| 20260506125046 | 63 | 109 | 4.0 | 11.0 | 0.00 | 0.00 | 0.00 | 76 | 1014.1 |
| 20260506124551 | 63 | 93 | 1.0 | 9.0 | 0.00 | 0.00 | 0.00 | 77 | 1014.1 |
| 20260506124050 | 62 | 28 | 3.0 | 9.0 | 0.00 | 0.00 | 0.00 | 76 | 1014.2 |
| 20260506123548 | 62 | 40 | 2.0 | 9.0 | 0.00 | 0.00 | 0.00 | 77 | 1014.1 |
| 20260506123054 | 62 | 84 | 3.0 | 9.0 | 0.00 | 0.00 | 0.00 | 77 | 1014.3 |
| 20260506122546 | 62 | 56 | 3.0 | 12.0 | 0.00 | 0.00 | 0.00 | 77 | 1014.3 |
| 20260506122047 | 62 | 109 | 3.0 | 12.0 | 0.00 | 0.00 | 0.00 | 77 | 1014.3 |
| 20260506121553 | 62 | 70 | 4.0 | 12.0 | 0.00 | 0.00 | 0.00 | 77 | 1014.4 |
| 20260506121045 | 62 | 90 | 3.0 | 10.0 | 0.00 | 0.00 | 0.00 | 77 | 1014.2 |
| 20260506120546 | 62 | 17 | 3.0 | 9.0 | 0.00 | 0.00 | 0.00 | 77 | 1014.2 |
| 20260506120053 | 61 | 56 | 4.0 | 8.0 | 0.00 | 0.00 | 0.00 | 78 | 1014.2 |
| 20260506115548 | 61 | 96 | 2.0 | 8.0 | 0.00 | 0.00 | 0.00 | 78 | 1014.2 |
| 20260506115045 | 61 | 98 | 2.0 | 8.0 | 0.00 | 0.00 | 0.00 | 78 | 1014.2 |
| 20260506114551 | 61 | 44 | 3.0 | 8.0 | 0.00 | 0.00 | 0.00 | 78 | 1014.1 |
| 20260506114047 | 61 | 50 | 3.0 | 8.0 | 0.00 | 0.00 | 0.00 | 78 | 1014.1 |
| 20260506113545 | 61 | 64 | 3.0 | 7.0 | 0.00 | 0.00 | 0.00 | 78 | 1014.0 |
| 20260506113054 | 61 | 56 | 2.0 | 7.0 | 0.00 | 0.00 | 0.00 | 78 | 1013.9 |
| 20260506112547 | 61 | 64 | 2.0 | 6.0 | 0.00 | 0.00 | 0.00 | 78 | 1013.9 |
| 20260506112049 | 60 | 78 | 2.0 | 4.0 | 0.00 | 0.00 | 0.00 | 79 | 1013.9 |
| 20260506111557 | 60 | 49 | 1.0 | 4.0 | 0.00 | 0.00 | 0.00 | 79 | 1013.9 |
| 20260506111051 | 60 | 83 | 1.0 | 4.0 | 0.00 | 0.00 | 0.00 | 79 | 1013.8 |
| 20260506110548 | 60 | 76 | 1.0 | 4.0 | 0.00 | 0.00 | 0.00 | 79 | 1013.9 |
| 20260506110051 | 60 | 53 | 0.0 | 5.0 | 0.00 | 0.00 | 0.00 | 79 | 1013.6 |
| 20260506105548 | 60 | 97 | 1.0 | 5.0 | 0.00 | 0.00 | 0.00 | 79 | 1013.6 |
| 20260506105050 | 60 | 73 | 1.0 | 5.0 | 0.00 | 0.00 | 0.00 | 79 | 1013.4 |
| 20260506104559 | 60 | 0 | 1.0 | 5.0 | 0.00 | 0.00 | 0.00 | 79 | 1013.3 |
| 20260506104048 | 60 | 85 | 0.0 | 5.0 | 0.00 | 0.00 | 0.00 | 79 | 1013.3 |
| 20260506103547 | 60 | 84 | 0.0 | 6.0 | 0.00 | 0.00 | 0.00 | 78 | 1013.3 |
| 20260506103055 | 60 | 51 | 1.0 | 7.0 | 0.00 | 0.00 | 0.00 | 78 | 1013.3 |
| 20260506102548 | 60 | 62 | 1.0 | 8.0 | 0.00 | 0.00 | 0.00 | 78 | 1013.4 |
| 20260506102045 | 60 | 85 | 2.0 | 8.0 | 0.00 | 0.00 | 0.00 | 78 | 1013.5 |
| 20260506101551 | 60 | 84 | 2.0 | 8.0 | 0.00 | 0.00 | 0.00 | 78 | 1013.5 |
| 20260506101052 | 60 | 97 | 2.0 | 8.0 | 0.00 | 0.00 | 0.00 | 78 | 1013.4 |
| 20260506100545 | 60 | 67 | 1.0 | 8.0 | 0.00 | 0.00 | 0.00 | 78 | 1013.2 |
| 20260506100059 | 61 | 48 | 0.0 | 8.0 | 0.00 | 0.00 | 0.00 | 77 | 1013.1 |
| 20260506095548 | 61 | 5 | 1.0 | 6.0 | 0.00 | 0.00 | 0.00 | 77 | 1013.3 |
| 20260506095051 | 61 | 88 | 1.0 | 6.0 | 0.00 | 0.00 | 0.00 | 77 | 1013.4 |
| 20260506094611 | 61 | 67 | 0.0 | 6.0 | 0.00 | 0.00 | 0.00 | 77 | 1013.4 |
| 20260506094050 | 61 | 90 | 1.0 | 6.0 | 0.00 | 0.00 | 0.00 | 77 | 1013.4 |
| 20260506093550 | 61 | 0 | 2.0 | 6.0 | 0.00 | 0.00 | 0.00 | 77 | 1013.4 |
| 20260506093051 | 61 | 103 | 2.0 | 6.0 | 0.00 | 0.00 | 0.00 | 77 | 1013.6 |
| 20260506092545 | 61 | 92 | 2.0 | 6.0 | 0.00 | 0.00 | 0.00 | 77 | 1013.5 |
| 20260506092047 | 61 | 75 | 0.0 | 10.0 | 0.00 | 0.00 | 0.00 | 76 | 1013.4 |
| 20260506091551 | 61 | 46 | 2.0 | 10.0 | 0.00 | 0.00 | 0.00 | 76 | 1013.4 |
| 20260506091048 | 61 | 332 | 2.0 | 10.0 | 0.00 | 0.00 | 0.00 | 76 | 1013.6 |
| 20260506090547 | 61 | 21 | 1.0 | 5.0 | 0.00 | 0.00 | 0.00 | 76 | 1013.7 |
| 20260506090052 | 62 | 0 | 1.0 | 7.0 | 0.00 | 0.00 | 0.00 | 76 | 1013.8 |
| 20260506085547 | 62 | 83 | 1.0 | 9.0 | 0.00 | 0.00 | 0.00 | 75 | 1013.8 |
| 20260506085048 | 62 | 106 | 3.0 | 9.0 | 0.00 | 0.00 | 0.00 | 75 | 1013.8 |
| 20260506084557 | 62 | 40 | 3.0 | 9.0 | 0.00 | 0.00 | 0.00 | 75 | 1013.8 |
| 20260506084047 | 62 | 42 | 3.0 | 8.0 | 0.00 | 0.00 | 0.00 | 75 | 1013.8 |
| 20260506083550 | 62 | 86 | 3.0 | 8.0 | 0.00 | 0.00 | 0.00 | 75 | 1013.7 |
| 20260506083059 | 62 | 98 | 2.0 | 9.0 | 0.00 | 0.00 | 0.00 | 75 | 1013.7 |
| 20260506082550 | 62 | 127 | 2.0 | 10.0 | 0.00 | 0.00 | 0.00 | 74 | 1013.7 |
| 20260506082044 | 62 | 341 | 2.0 | 14.0 | 0.00 | 0.00 | 0.00 | 74 | 1013.7 |
| 20260506081550 | 62 | 36 | 4.0 | 14.0 | 0.00 | 0.00 | 0.00 | 74 | 1013.7 |
| 20260506081046 | 62 | 54 | 2.0 | 9.0 | 0.00 | 0.00 | 0.00 | 74 | 1013.7 |
| 20260506080548 | 63 | 65 | 4.0 | 11.0 | 0.00 | 0.00 | 0.00 | 74 | 1013.8 |
| 20260506073104 | 63 | 123 | 1.0 | 7.0 | 0.00 | 0.00 | 0.00 | 74 | 1013.4 |
| 20260506072545 | 63 | 61 | 1.0 | 9.0 | 0.00 | 0.00 | 0.00 | 74 | 1013.4 |
| 20260506072042 | 63 | 42 | 1.0 | 9.0 | 0.00 | 0.00 | 0.00 | 74 | 1013.6 |
| 20260506071552 | 63 | 76 | 2.0 | 12.0 | 0.00 | 0.00 | 0.00 | 74 | 1013.6 |
| 20260506071051 | 63 | 38 | 2.0 | 12.0 | 0.00 | 0.00 | 0.00 | 74 | 1013.6 |
| 20260506070544 | 63 | 55 | 2.0 | 9.0 | 0.00 | 0.00 | 0.00 | 74 | 1013.6 |
| 20260506062045 | 63 | 42 | 2.0 | 9.0 | 0.00 | 0.00 | 0.00 | 72 | 1014.0 |
| 20260506061552 | 63 | 340 | 3.0 | 9.0 | 0.00 | 0.00 | 0.00 | 72 | 1014.0 |
| 20260506061045 | 63 | 0 | 2.0 | 12.0 | 0.00 | 0.00 | 0.00 | 72 | 1014.1 |
| 20260506060544 | 63 | 342 | 2.0 | 12.0 | 0.00 | 0.00 | 0.00 | 71 | 1014.0 |